Meteo pe oră la Alikanas

Astăzi, 26 Ianuarie, Marţi

Timp Temperatura Precipitaţii Vânt Presiune Umiditate
00:00 +13°C° 0 mm 8 m/s 758 mmHg 73%
01:00 +13°C° 0 mm 8 m/s 757 mmHg 73%
02:00 +13°C° 0.2 mm 8 m/s 757 mmHg 75%
03:00 +15°C° 0.2 mm 9 m/s 757 mmHg 76%
04:00 +15°C° 0.2 mm 9 m/s 756 mmHg 78%
05:00 +15°C° 0.5 mm 9 m/s 756 mmHg 77%
06:00 +14°C° 0.5 mm 10 m/s 755 mmHg 77%
07:00 +14°C° 0.5 mm 11 m/s 755 mmHg 77%
08:00 +14°C° 0.4 mm 11 m/s 755 mmHg 77%
09:00 +14°C° 0.4 mm 11 m/s 754 mmHg 77%
10:00 +15°C° 0.4 mm 12 m/s 754 mmHg 77%
11:00 +14°C° 1.1 mm 11 m/s 753 mmHg 79%
12:00 +14°C° 1.1 mm 11 m/s 752 mmHg 80%
13:00 +14°C° 1.1 mm 10 m/s 751 mmHg 82%
14:00 +13°C° 2.5 mm 11 m/s 750 mmHg 84%
15:00 +13°C° 2.5 mm 11 m/s 750 mmHg 87%
16:00 +13°C° 2.5 mm 11 m/s 750 mmHg 89%
17:00 +12°C° 1.2 mm 12 m/s 749 mmHg 85%
18:00 +10°C° 1.2 mm 12 m/s 749 mmHg 81%
19:00 +10°C° 1.2 mm 12 m/s 749 mmHg 77%
20:00 +9°C° 0 mm 13 m/s 750 mmHg 75%
21:00 +9°C° 0 mm 13 m/s 750 mmHg 73%
22:00 +9°C° 0 mm 14 m/s 751 mmHg 72%
23:00 +9°C° 0.1 mm 15 m/s 751 mmHg 70%

Mâine, 27 Ianuarie, Miercuri

Timp Temperatura Precipitaţii Vânt Presiune Umiditate
00:00 +9°C° 0.1 mm 16 m/s 751 mmHg 69%
01:00 +7°C° 0.1 mm 16 m/s 752 mmHg 67%
02:00 +7°C° 0.1 mm 17 m/s 752 mmHg 66%
03:00 +7°C° 0.1 mm 18 m/s 752 mmHg 65%
04:00 +6°C° 0.1 mm 18 m/s 752 mmHg 64%
05:00 +6°C° 0.2 mm 18 m/s 752 mmHg 64%
06:00 +6°C° 0.2 mm 18 m/s 753 mmHg 64%
07:00 +6°C° 0.2 mm 18 m/s 753 mmHg 64%
08:00 +6°C° 0.2 mm 18 m/s 754 mmHg 63%
09:00 +6°C° 0.2 mm 18 m/s 755 mmHg 62%
10:00 +6°C° 0.2 mm 18 m/s 755 mmHg 61%
11:00 +7°C° 0.2 mm 17 m/s 755 mmHg 60%
12:00 +7°C° 0.2 mm 17 m/s 756 mmHg 59%
13:00 +7°C° 0.2 mm 16 m/s 756 mmHg 59%
14:00 +7°C° 0.1 mm 16 m/s 756 mmHg 58%
15:00 +7°C° 0.1 mm 16 m/s 756 mmHg 58%
16:00 +8°C° 0.1 mm 15 m/s 756 mmHg 58%
17:00 +8°C° 0.2 mm 15 m/s 757 mmHg 58%
18:00 +8°C° 0.2 mm 14 m/s 758 mmHg 59%
19:00 +8°C° 0.2 mm 14 m/s 758 mmHg 59%
20:00 +8°C° 0.1 mm 14 m/s 758 mmHg 59%
21:00 +8°C° 0.1 mm 14 m/s 759 mmHg 59%
22:00 +8°C° 0.1 mm 14 m/s 759 mmHg 58%
23:00 +8°C° 0.2 mm 13 m/s 759 mmHg 60%

Poimâine, 28 Ianuarie, Joi

Timp Temperatura Precipitaţii Vânt Presiune Umiditate
00:00 +8°C° 0.2 mm 13 m/s 759 mmHg 62%
01:00 +8°C° 0.2 mm 12 m/s 759 mmHg 64%
02:00 +8°C° 0.1 mm 12 m/s 759 mmHg 63%
03:00 +8°C° 0.1 mm 12 m/s 759 mmHg 63%
04:00 +8°C° 0.1 mm 11 m/s 759 mmHg 63%
05:00 +8°C° 0.1 mm 11 m/s 759 mmHg 62%
06:00 +8°C° 0.1 mm 10 m/s 760 mmHg 62%
07:00 +8°C° 0.1 mm 10 m/s 760 mmHg 62%
08:00 +8°C° 0 mm 10 m/s 760 mmHg 59%
09:00 +9°C° 0 mm 10 m/s 760 mmHg 56%
10:00 +10°C° 0 mm 9 m/s 760 mmHg 53%
11:00 +10°C° 0 mm 9 m/s 760 mmHg 55%
12:00 +10°C° 0 mm 9 m/s 760 mmHg 56%
13:00 +10°C° 0 mm 9 m/s 760 mmHg 57%
14:00 +10°C° 0.1 mm 9 m/s 760 mmHg 58%
15:00 +9°C° 0.1 mm 10 m/s 760 mmHg 59%
16:00 +9°C° 0.1 mm 10 m/s 760 mmHg 60%
17:00 +10°C° 0.1 mm 9 m/s 761 mmHg 62%
18:00 +10°C° 0.1 mm 9 m/s 761 mmHg 63%
19:00 +10°C° 0.1 mm 8 m/s 762 mmHg 65%
20:00 +10°C° 0 mm 8 m/s 762 mmHg 66%
21:00 +10°C° 0 mm 8 m/s 762 mmHg 67%
22:00 +10°C° 0 mm 7 m/s 762 mmHg 68%
23:00 +10°C° 0 mm 7 m/s 762 mmHg 65%

29 Ianuarie, Vineri

Timp Temperatura Precipitaţii Vânt Presiune Umiditate
00:00 +10°C° 0 mm 7 m/s 762 mmHg 62%
01:00 +11°C° 0 mm 7 m/s 762 mmHg 58%
02:00 +11°C° 0 mm 6 m/s 762 mmHg 63%
03:00 +12°C° 0 mm 5 m/s 762 mmHg 67%
04:00 +12°C° 0 mm 4 m/s 762 mmHg 72%
05:00 +13°C° 0.1 mm 5 m/s 761 mmHg 72%
06:00 +13°C° 0.1 mm 5 m/s 761 mmHg 72%
07:00 +13°C° 0.1 mm 6 m/s 761 mmHg 73%
08:00 +13°C° 0.1 mm 5 m/s 761 mmHg 74%
09:00 +13°C° 0.1 mm 5 m/s 760 mmHg 76%
10:00 +13°C° 0.1 mm 5 m/s 760 mmHg 77%
11:00 +14°C° 0.1 mm 4 m/s 760 mmHg 77%
12:00 +14°C° 0.1 mm 4 m/s 759 mmHg 76%
13:00 +15°C° 0.1 mm 4 m/s 759 mmHg 76%
14:00 +16°C° 0 mm 3 m/s 759 mmHg 77%
15:00 +16°C° 0 mm 3 m/s 758 mmHg 77%
16:00 +16°C° 0 mm 3 m/s 758 mmHg 78%
17:00 +16°C° 0.1 mm 3 m/s 758 mmHg 79%
18:00 +16°C° 0.1 mm 3 m/s 758 mmHg 81%
19:00 +15°C° 0.1 mm 4 m/s 758 mmHg 82%
20:00 +15°C° 0.2 mm 4 m/s 758 mmHg 83%
21:00 +15°C° 0.2 mm 5 m/s 758 mmHg 83%
22:00 +15°C° 0.2 mm 6 m/s 757 mmHg 83%
23:00 +15°C° 0.2 mm 6 m/s 757 mmHg 83%

30 Ianuarie, Sâmbătă

Timp Temperatura Precipitaţii Vânt Presiune Umiditate
00:00 +16°C° 0.2 mm 7 m/s 757 mmHg 82%
01:00 +16°C° 0.2 mm 7 m/s 756 mmHg 81%
02:00 +16°C° 0 mm 7 m/s 755 mmHg 82%
03:00 +15°C° 0 mm 6 m/s 755 mmHg 83%
04:00 +15°C° 0 mm 5 m/s 754 mmHg 84%
05:00 +15°C° 0 mm 6 m/s 753 mmHg 86%
06:00 +15°C° 0 mm 7 m/s 753 mmHg 87%
07:00 +15°C° 0 mm 7 m/s 753 mmHg 88%
08:00 +16°C° 0 mm 8 m/s 753 mmHg 85%
09:00 +17°C° 0 mm 9 m/s 753 mmHg 81%
10:00 +17°C° 0 mm 9 m/s 753 mmHg 78%
11:00 +17°C° 0 mm 9 m/s 753 mmHg 78%
12:00 +17°C° 0 mm 9 m/s 753 mmHg 77%
13:00 +17°C° 0 mm 8 m/s 753 mmHg 77%
14:00 +16°C° 0 mm 8 m/s 753 mmHg 76%
15:00 +16°C° 0 mm 7 m/s 754 mmHg 75%
16:00 +15°C° 0 mm 6 m/s 754 mmHg 74%
17:00 +15°C° 0 mm 5 m/s 754 mmHg 75%
18:00 +15°C° 0 mm 5 m/s 755 mmHg 76%
19:00 +14°C° 0 mm 4 m/s 755 mmHg 77%
20:00 +14°C° 0 mm 3 m/s 756 mmHg 75%
21:00 +15°C° 0 mm 2 m/s 756 mmHg 74%
22:00 +15°C° 0 mm 2 m/s 756 mmHg 72%
23:00 +15°C° 0 mm 2 m/s 756 mmHg 72%

31 Ianuarie, Duminică

Timp Temperatura Precipitaţii Vânt Presiune Umiditate
00:00 +14°C° 0 mm 2 m/s 756 mmHg 72%
01:00 +14°C° 0 mm 2 m/s 756 mmHg 73%
02:00 +13°C° 0 mm 3 m/s 756 mmHg 76%
03:00 +13°C° 0 mm 4 m/s 756 mmHg 80%
04:00 +14°C° 0 mm 4 m/s 755 mmHg 83%
05:00 +14°C° 0 mm 5 m/s 755 mmHg 84%
06:00 +14°C° 0 mm 6 m/s 755 mmHg 85%
07:00 +14°C° 0 mm 6 m/s 756 mmHg 85%
08:00 +15°C° 0.1 mm 7 m/s 755 mmHg 86%
09:00 +16°C° 0.1 mm 7 m/s 755 mmHg 86%
10:00 +16°C° 0.1 mm 8 m/s 755 mmHg 86%
11:00 +16°C° 0.8 mm 8 m/s 754 mmHg 87%
12:00 +16°C° 0.8 mm 9 m/s 754 mmHg 87%
13:00 +16°C° 0.8 mm 9 m/s 753 mmHg 87%
14:00 +16°C° 1.4 mm 8 m/s 753 mmHg 84%
15:00 +16°C° 1.4 mm 8 m/s 753 mmHg 82%
16:00 +16°C° 1.4 mm 8 m/s 752 mmHg 80%
17:00 +16°C° 0.7 mm 8 m/s 752 mmHg 80%
18:00 +16°C° 0.7 mm 7 m/s 752 mmHg 81%
19:00 +16°C° 0.7 mm 7 m/s 752 mmHg 82%
20:00 +16°C° 0.6 mm 7 m/s 752 mmHg 81%
21:00 +16°C° 0.6 mm 6 m/s 752 mmHg 81%
22:00 +16°C° 0.6 mm 6 m/s 752 mmHg 81%
23:00 +15°C° 0.5 mm 6 m/s 752 mmHg 81%
Arată mai mult

Formular de consimțământ

Meteoprog și furnizorii noștri de servicii pot stoca și accesa date personale, precum cookies, identificatori de dispozitiv sau alte tehnologii similare pe dispozitivul dumneavoastră și procesa astfel de date pentru a personaliza conținutul și reclamele, dar și pentru a oferi caracteristici de social media și pentru a analiza traficul.

  • Stocarea și/sau accesarea informațiilor pe dispozitivul dumneavoastră

    Cookies, identificatori de dispozitiv sau alte informații pot fi stocate sau accesate pe dispozitiv în scopurile indicate mai sus.

  • Reclame și conținut personalizat, evaluarea reclamelor și a conținutului, informații despre audiențe și dezvoltarea produselor

    Reclamele și conținutul pot fi personalizate pe baza unui profil. Pot fi adăugate date suplimentare pentru a personaliza mai bine reclamele și conținutul. Performanța reclamelor și conținutului poate fi măsurată. Pot fi obținute informații despre utilizatorii care au văzut reclamele și conținutul. Aceste date pot fi utilizate pentru a dezvolta sau îmbunătăți experiența utilizatorilor, sistemele și software-ul.

Dând clic pe ‘Sunt de acord’, permiteți utilizarea cookie-urilor menționate, a identificatorilor de dispozitiv, balizelor web sau altor tehnologii similare. Setările pot fi modificate din browser-ul dispozitivului dumneavoastră.

În anumite scopuri, interesele legitime pot prima asupra consimțământului. Puteți citi mai multe informații în acest sens în Politica privind Confidențialitatea Datelor și Cookie.